Regional Weather Roundup
Issued by NWS Charleston, SC

Current Version | Previous Version | Graphics & Text | Print | Product List | Glossary On
Versions: 1 2 3 4 5 6 7 8 9 10 11 12 13 14 15 16 17 18 19 20 21 22 23 24 25 26 27 28 29 30 31 32 33 34 35 36 37 38 39 40 41 42 43 44 45 46 47 48 49 50
000
ASUS42 KCHS 180427
RWRCHS

REGIONAL WEATHER ROUNDUP
NATIONAL WEATHER SERVICE CHARLESTON SC
1200 AM EDT FRI AUG 18 2017

NOTE: "FAIR" INDICATES FEW OR NO CLOUDS BELOW 12,000 FEET WITH NO
SIGNIFICANT WEATHER AND/OR OBSTRUCTIONS TO VISIBILITY.

NOT ALL STATIONS ARE QUALITY CONTROLLED. USE DATA WITH CAUTION...
ESPECIALLY DEWPOINT OBSERVATIONS.

SCZ027-030-031-034>040-042>050-180500-
...SOUTHEAST SOUTH CAROLINA...

CITY           SKY/WX    TMP DP  RH WIND       PRES   REMARKS
N CHARLESTON   PTCLDY    82  79  90 S7        29.98F HX  92
WATERFRONT PRK   N/A    N/A N/A N/A SW5       29.83S
JOHNS ISLAND   FAIR      84  82  94 SW7       29.99S HX 101
PINOPOLIS        N/A     82  79  89 SW6       29.91F HX  93
MONCKS CORNER  FAIR      79  77  94 SW3       29.98S
SUMMERVILLE    FAIR      79  77  94 CALM      30.00R
BEAUFORT MCAS  CLEAR     83  79  88 S3        30.00S HX  94
BEAUFORT ARPT  FAIR      82  77  83 SW6       30.00R HX  91
HILTON HEAD IS CLEAR     84  79  84 SW6       30.01S HX  96
WALTERBORO     CLEAR     81  77  89 SW6       30.00S
ALLENDALE      NOT AVBL

...SOUTHERN MIDLANDS AND PEE DEE...

CITY           SKY/WX    TMP DP  RH WIND       PRES   REMARKS
GEORGETOWN     FAIR      79  79 100 CALM      29.99F
KINGSTREE      FAIR      77  73  88 CALM      29.98S
ORANGEBURG     CLOUDY    78  75  90 SW3       29.98F
BARNWELL       FAIR      82  77  83 CALM      29.98S HX  91
AIKEN          FAIR      79  73  83 SW6       30.02F
MANNING        FAIR      81  77  89 MISG      29.98S
COLUMBIA       CLEAR     84  75  74 SW3       29.96F HX  92
SUMTER         CLOUDY    82  74  78 SW3       29.95S
FLORENCE       PTCLDY    79  77  94 SE6       29.98S
MYRTLE BEACH   NOT AVBL
N MYRTLE BEACH PTCLDY    80  78  94 SW7       29.98F

$$

GAZ063-065-086>088-099>101-113>116-118-119-134>141-150-180500-
...SOUTHEAST GEORGIA...

CITY           SKY/WX    TMP DP  RH WIND       PRES   REMARKS
SAVANNAH ARPT  PTCLDY    82  74  76 SW7       30.01S
HUNTER AAF     PTCLDY    81  76  83 W5        29.99R
FORT STEWART   PTCLDY    79  75  87 CALM      29.99S
STATESBORO     CLEAR     81  73  78 S3        30.00S
SYLVANIA       CLEAR     81  78  90 CALM      30.01S
CLAXTON        FAIR      81  77  89 CALM      30.00F

...CSRA...CENTRAL AND FAR SOUTHEAST GEORGIA...

CITY           SKY/WX    TMP DP  RH WIND       PRES   REMARKS
THOMSON        CLEAR     78  75  91 CALM      30.04F
AUGUSTA-BUSH   CLEAR     80  77  90 CALM      29.98S
AUGUSTA-DANIEL CLEAR     85  71  63 CALM      30.00S HX  90
SWAINSBORO     FAIR      81  77  89 CALM      30.01S
VIDALIA        CLOUDY    81  75  83 CALM      30.00F
EASTMAN        FAIR      78  78 100 CALM      30.03F
HAZLEHURST     FAIR      82  71  70 S3        30.00F
ALMA           PTCLDY    79  76  90 S3        30.02F
WAYCROSS       PTCLDY    78  75  91 SW3       30.02F
JESUP          FAIR      79  75  89 CALM      30.02F
BAXLEY         FAIR      77  77 100 CALM      30.01F
BRUNSWICK      CLEAR     79  73  83 SW3       30.02F
SAINT SIMONS   CLEAR     82  78  88 S6        30.02F HX  91

$$

SCZ027-028-034-036>038-045-046-048>050-GAZ119-141-180500-
...LAKE AND SUPPLEMENTAL COASTAL OBSERVATIONS...

STATION/POSITION TIME  TEMP    WIND        PRES    WAVE   SWELL
                       AIR SEA DIR/SP/G            HT/PER HT/PER/DIR
                 (UTC) (F)     (DEG/KT/KT) (MB)    (FT/S) (FT/S/D)
WINYAH BAY       0345   81        CALM     1015.0S
LAKE MURRAY      0330   86     250/  8/ 10 1013.9S
ACE BASIN NERRS  0345   82        CALM     1016.0S
FORT PULASKI     0400   83 86  250/  5/  7 1016.4
SAPELO ISLAND    0400   81        CALM     1016.0

$$

ANZ835-935-AMZ111-154-330-350-352-354-370-450-454-472-180500-
...C-MAN AND BUOY OBSERVATIONS...

STATION/POSITION TIME  TEMP    WIND        PRES    WAVE   SWELL
                       AIR SEA DIR/SP/G            HT/PER HT/PER/DIR
                 (UTC) (F)     (DEG/KT/KT) (MB)    (FT/S) (FT/S/D)
BUOY 41004       0410   85 85  210/ 12/ 14 1015.4
BUOY 41008       0350   85 85  220/ 10/ 12 1016.2F   2/ 4
FOLLY BEACH CMAN 0400   86     210/ 18/ 20 1016.2F
CAPERS NEARSHORE 0408   83 86  230/ 14/ 17 1015.3F
FRIPP NEARSHORE  0408   86     220/ 12/ 17 1015.4F


STATION/POSITION TIME  TEMP    WIND        PRES    WAVE   SWELL
                       AIR SEA DIR/SP/G            HT/PER HT/PER/DIR
                 (UTC) (F)     (DEG/KT/KT) (MB)    (FT/S) (FT/S/D)
5E ST. MARYS GA  0400      85                N/A     1/ 8
FRYING PAN BUOY  0410   84 85  190/ 10/ 10 1015.5
BUOY 41025       0350   84 86  170/  8/ 10 1016.3S   2/ 6   2/100/ 6
CAPE LOOKOUT NC  0400   83     160/  8/  9 1015.7S
BUOY 41002       0350   80 84  160/  6/ 10 1017.7F   2/ 6   2/120/ 6
BUOY 41010       0410   85 86  190/  8/  8 1017.8
ST AUGUSTINE FL  0400   78 82  230/  5/  6 1017.8F


$$




USA.gov is the U.S. government's official web portal to all federal, state and local government web resources and services.